[[{"header":{"parameterUnit":"m.s-1","parameterCategory":1,"la1":30.2991,"la2":30.254,"lo1":-89.0895,"lo2":-89.0444,"dy":0.0017,"dx":0.0017,"nx":28,"ny":28,"refTime":"2024-04-05T21:00:00:Z","depth":0,"parameterNumber":2,"parameterNumberName":"U-component_of_WINDS"},"data":[0,0,0,0,0,0,0,0,0,0,0,0,0,0,0,0,0,0,0,0,0,0,0,0,0,0,0,0,0,0,0,0,0,0,0,0,0,0,0,0,0,0,0,0,0,0,0,0,0,0,0,0,0,0,0,0,0,0,-3.2453,-3.2455,0,-3.2578,-3.2579,-3.2581,-3.257,-3.2568,-3.2566,-3.2564,-3.2692,-3.2697,-3.2702,0,0,0,0,0,0,0,0,0,0,0,0,0,-3.2206,-3.2211,-3.2453,-3.2455,-3.2456,-3.2578,-3.2579,-3.2581,-3.257,-3.2568,-3.2566,-3.2563,-3.269,-3.2696,-3.2702,0,0,0,0,0,0,0,0,0,0,0,0,0,-3.2321,-3.2212,-3.2453,-3.2465,-3.2468,-3.2577,-3.2579,-3.2581,-3.2571,-3.2568,-3.2565,-3.2562,-3.2688,-3.2696,-3.2703,-3.2808,0,0,-3.2727,-3.273,0,0,0,0,0,0,0,0,-3.2314,-3.233,-3.2462,-3.2465,-3.2468,-3.2555,-3.2539,-3.2657,-3.2571,-3.2532,-3.2564,-3.2561,-3.2649,-3.2659,-3.2689,-3.2814,-3.282,-3.2728,-3.2732,-3.2736,-3.2738,0,0,0,0,0,0,0,-3.2306,-3.2324,-3.2502,-3.2464,-3.2467,-3.2465,-3.2478,-3.2561,-3.2605,-3.2535,-3.2534,-3.2549,-3.265,-3.2682,-3.2692,-3.2822,-3.2727,-3.2734,-3.2739,-3.2742,-3.3039,-3.3042,0,0,0,0,0,0,-3.2295,-3.2318,-3.2498,-3.2506,-3.2382,-3.2472,-3.2486,-3.253,-3.2604,-3.2612,-3.2552,-3.2548,-3.267,-3.2683,-3.2697,-3.2824,-3.2736,-3.2743,-3.2747,-3.3036,-3.304,-3.3043,0,0,0,0,0,0,-3.229,-3.2311,-3.2493,-3.2412,-3.2435,-3.2479,-3.2528,-3.2534,-3.2566,-3.2616,-3.2624,-3.2576,-3.2668,-3.2686,-3.278,-3.2828,-3.2746,-3.2753,-3.3032,-3.3037,-3.3041,-3.3079,0,0,0,0,0,0,-3.2283,-3.231,-3.235,-3.2413,-3.2439,-3.2575,-3.2531,-3.2538,-3.2579,-3.2576,-3.2642,-3.265,-3.2667,-3.2769,-3.2788,-3.2837,-3.2759,-3.3028,-3.3034,-3.304,-3.3074,-3.3085,-3.3094,0,0,0,0,0,-3.2274,-3.2355,-3.2352,-3.2374,-3.249,-3.2578,-3.2593,-3.2612,-3.2583,-3.2624,-3.2656,-3.2648,-3.282,-3.2779,-3.28,-3.2852,-3.3025,-3.3032,-3.3039,-3.3069,-3.3082,-3.3094,0,0,0,0,0,0,-3.2297,-3.2364,-3.2361,-3.2465,-3.2516,-3.2576,-3.2628,-3.2625,-3.2685,-3.268,-3.2701,-3.2715,-3.2811,-3.2841,-3.2794,-3.2958,-3.2919,-3.2931,-3.2934,-3.2947,-3.2957,-3.2947,-3.2766,0,0,0,0,0,-3.2314,-3.2379,-3.2435,-3.2521,-3.2547,-3.2583,-3.2622,-3.2632,-3.2686,-3.2707,-3.2746,-3.2799,-3.2865,-3.2908,-3.2972,-3.3079,-3.3092,-3.3125,-3.3135,-3.3143,-3.3153,-3.3211,-3.3226,-3.3067,-3.3067,-3.3067,0,0,-3.235,-3.2394,-3.2434,-3.2527,-3.2567,-3.2635,-3.2601,-3.2674,-3.2724,-3.2718,-3.281,-3.2841,-3.2901,-3.3002,-3.3049,-3.3031,-3.32,-3.3153,-3.3159,-3.3164,-3.322,-3.3235,-3.3249,-3.3072,-3.3071,-3.307,0,0,-3.2449,-3.249,-3.2566,-3.2608,-3.267,-3.2694,-3.2712,-3.2773,-3.2793,-3.2886,-3.2883,-3.2943,-3.3057,-3.3099,-3.3136,-3.3253,-3.3247,-3.3273,-3.3325,-3.3382,-3.3394,-3.3406,-3.3446,-3.3461,-3.3283,-3.3283,-3.3283,0,-3.2485,-3.2586,-3.2606,-3.2679,-3.272,-3.2718,-3.2795,-3.2835,-3.2915,-3.2943,-3.2922,-3.3064,-3.3104,-3.3215,-3.3244,-3.3274,-3.3295,-3.3265,-3.3391,-3.3403,-3.3413,-3.3452,-3.3468,-3.3286,-3.3285,-3.3285,-3.3285,0,-3.2628,-3.2698,-3.2753,-3.283,-3.2877,-3.2952,-3.2982,-3.3028,-3.3034,-3.306,-3.3154,-3.3203,-3.3276,-3.3304,-3.3311,-3.3416,-3.3403,-3.3386,-3.3347,-3.3431,-3.3468,-3.3483,-3.3289,-3.3289,-3.3288,-3.3287,0,0,-3.2744,-3.2831,-3.285,-3.2885,-3.2954,-3.3009,-3.3084,-3.3156,-3.3194,-3.325,-3.3313,-3.3409,-3.3395,-3.3436,-3.3448,-3.3499,-3.3587,-3.3476,-3.3477,-3.3494,-3.3705,-3.3716,-3.3733,-3.3584,-3.3587,-3.359,-3.37,0,-3.2849,-3.2982,-3.3001,-3.3118,-3.3183,-3.3184,-3.3249,-3.3299,-3.3325,-3.3385,-3.3414,-3.3482,-3.3458,-3.3483,-3.3533,-3.3566,-3.363,-3.3558,-3.3643,-3.3645,-3.3626,-3.3753,-3.3765,-3.3867,-3.3715,-3.3717,-3.3719,0,-3.2989,-3.3048,-3.3172,-3.3232,-3.326,-3.3318,-3.3386,-3.3443,-3.3499,-3.3515,-3.3562,-3.3568,-3.3646,-3.3605,-3.3713,-3.3664,-3.37,-3.3722,-3.3726,-3.3733,-3.3686,-3.3762,-3.39,-3.3914,-3.3742,-3.374,-3.3739,0,-3.3059,-3.317,-3.3258,-3.3288,-3.3361,-3.3402,-3.3434,-3.3488,-3.353,-3.3589,-3.3617,-3.3684,-3.3721,-3.3774,-3.3798,-3.3766,-3.3904,-3.3865,-3.3919,-3.3918,-3.3947,-3.3944,-3.409,-3.3972,-3.3972,-3.3972,-3.3972,0,-3.3174,-3.3249,-3.3291,-3.3345,-3.3429,-3.3452,-3.3535,-3.3566,-3.3614,-3.3674,-3.3679,-3.3735,-3.3765,-3.3826,-3.3846,-3.3932,-3.3949,-3.3963,-3.3967,-3.3962,-3.396,-3.3985,-3.3978,-3.3976,-3.3975,-3.3974,-3.3974,0,-3.3266,-3.3297,-3.3393,-3.3454,-3.3471,-3.3531,-3.3583,-3.3636,-3.3663,-3.3739,-3.3758,-3.38,-3.3872,-3.3902,-3.3991,-3.4004,-3.4103,-3.4102,-3.4083,-3.4084,-3.4136,-3.413,-3.4302,-3.4325,-3.4193,-3.4194,-3.4195,0,-3.3337,-3.3395,-3.3462,-3.3503,-3.3536,-3.3602,-3.3644,-3.3669,-3.3714,-3.3783,-3.3827,-3.3899,-3.3958,-3.4073,-3.4112,-3.418,-3.418,-3.4235,-3.419,-3.4183,-3.4179,-3.4175,-3.4181,-3.4243,-3.4244,-3.4245,-3.4246,0,-3.3458,-3.3471,-3.3532,-3.3599,-3.365,-3.3704,-3.3757,-3.379,-3.3823,-3.3873,-3.3947,-3.3993,-3.4083,-3.4154,-3.4225,-3.4258,-3.4258,-3.4261,-3.4277,-3.4271,-3.4257,-3.4264,-3.4104,-3.4256,-3.4255,-3.4254,-3.4254,-3.4254,-3.3541,-3.3592,-3.3648,-3.3716,-3.3759,-3.3808,-3.386,-3.3894,-3.3955,-3.4031,-3.4042,-3.4121,-3.4176,-3.4271,-3.4307,-3.4369,-3.4355,-3.4378,-3.4384,-3.4389,-3.4391,-3.4249,-3.4382,-3.4382,-3.4381,-3.4381,-3.4381,0,-3.3662,-3.3698,-3.376,-3.3834,-3.3888,-3.3883,-3.3942,-3.3987,-3.4056,-3.4108,-3.4166,-3.4251,-3.432,-3.4365,-3.4435,-3.4476,-3.4477,-3.4493,-3.449,-3.4497,-3.4401,-3.4379,-3.4491,-3.4491,-3.449,-3.449,-3.449,-3.449,-3.3731,-3.3817,-3.3836,-3.3944,-3.3979,-3.4056,-3.409,-3.4135,-3.4177,-3.4271,-3.4329,-3.4357,-3.4406,-3.448,-3.4544,-3.4555,-3.458,-3.4597,-3.4607,-3.4515,-3.4504,-3.4493,-3.4473,-3.4602,-3.4602,-3.4698,-3.4699,-3.47]},{"header":{"parameterUnit":"m.s-1","parameterCategory":1,"la1":30.2991,"la2":30.254,"lo1":-89.0895,"lo2":-89.0444,"dy":0.0017,"dx":0.0017,"nx":28,"ny":28,"refTime":"2024-04-05T21:00:00:Z","depth":0,"parameterNumber":3,"parameterNumberName":"V-component_of_WINDS"},"data":[0,0,0,0,0,0,0,0,0,0,0,0,0,0,0,0,0,0,0,0,0,0,0,0,0,0,0,0,0,0,0,0,0,0,0,0,0,0,0,0,0,0,0,0,0,0,0,0,0,0,0,0,0,0,0,0,0,0,3.8864,3.8864,0,3.8852,3.8852,3.8852,3.8766,3.8764,3.8762,3.876,3.8749,3.875,3.8752,0,0,0,0,0,0,0,0,0,0,0,0,0,3.8812,3.8814,3.8864,3.8864,3.8863,3.8852,3.8852,3.8852,3.8766,3.8764,3.8761,3.8759,3.8748,3.875,3.8752,0,0,0,0,0,0,0,0,0,0,0,0,0,3.8821,3.8814,3.8864,3.8819,3.8815,3.8852,3.8852,3.8852,3.8767,3.8764,3.8761,3.8758,3.8748,3.875,3.8752,3.8831,0,0,3.876,3.8761,0,0,0,0,0,0,0,0,3.8821,3.8823,3.8826,3.8822,3.8818,3.8807,3.883,3.8845,3.8768,3.8785,3.876,3.8756,3.8771,3.8771,3.8776,3.8831,3.883,3.876,3.8762,3.8763,3.8764,0,0,0,0,0,0,0,3.882,3.8823,3.8859,3.8826,3.8821,3.88,3.8798,3.8832,3.8796,3.8783,3.8777,3.8777,3.8768,3.8774,3.8775,3.883,3.876,3.8763,3.8764,3.8765,3.8948,3.8951,0,0,0,0,0,0,3.8826,3.8823,3.8859,3.8859,3.8811,3.8804,3.8801,3.8814,3.8795,3.8789,3.878,3.8773,3.8771,3.8772,3.8774,3.8864,3.8763,3.8765,3.8767,3.8944,3.8949,3.8952,0,0,0,0,0,0,3.8825,3.883,3.886,3.8839,3.8841,3.8808,3.8823,3.8815,3.8821,3.8792,3.8786,3.8792,3.8769,3.8771,3.8817,3.8862,3.8766,3.8769,3.8941,3.8946,3.895,3.9045,0,0,0,0,0,0,3.8824,3.883,3.8859,3.8841,3.8843,3.8903,3.8826,3.8817,3.8825,3.8817,3.8802,3.8797,3.8766,3.8814,3.882,3.8864,3.8771,3.8936,3.8943,3.8949,3.9037,3.9052,3.9065,0,0,0,0,0,3.8822,3.8887,3.8861,3.8866,3.8879,3.8906,3.8907,3.887,3.8829,3.8859,3.884,3.8797,3.8857,3.882,3.8825,3.8871,3.8933,3.8941,3.8948,3.9031,3.9049,3.9065,0,0,0,0,0,0,3.8912,3.8884,3.8855,3.8915,3.8914,3.8891,3.8927,3.8891,3.8901,3.8892,3.8847,3.8844,3.8897,3.8889,3.8848,3.8946,3.8888,3.8897,3.8949,3.8966,3.898,3.8979,3.8773,0,0,0,0,0,3.8939,3.8963,3.8937,3.8993,3.8994,3.8961,3.8971,3.8943,3.8939,3.8938,3.8923,3.8922,3.894,3.8953,3.8968,3.9037,3.9032,3.9071,3.9085,3.9096,3.9104,3.9138,3.9155,3.8977,3.8977,3.8977,0,0,3.8995,3.8982,3.9,3.9011,3.9006,3.9032,3.8961,3.8991,3.901,3.8943,3.8985,3.8975,3.897,3.9028,3.9052,3.9022,3.9152,3.9106,3.9115,3.9117,3.9148,3.9165,3.918,3.8982,3.8981,3.898,0,0,3.9109,3.9103,3.9147,3.9144,3.9138,3.9116,3.9127,3.911,3.91,3.9142,3.9092,3.9114,3.9147,3.9145,3.9148,3.9262,3.9223,3.9269,3.934,3.9374,3.9388,3.94,3.9439,3.9454,3.9277,3.9277,3.9278,0,3.9179,3.9215,3.9175,3.9209,3.9214,3.9155,3.92,3.9199,3.9199,3.9204,3.9171,3.921,3.9203,3.9258,3.9286,3.9292,3.9302,3.9269,3.939,3.9401,3.9412,3.9449,3.9464,3.9283,3.9282,3.9282,3.9281,0,3.93,3.9327,3.9364,3.9364,3.9374,3.9414,3.9379,3.9395,3.9366,3.9348,3.9391,3.938,3.9392,3.9403,3.9376,3.9455,3.9436,3.9398,3.9338,3.9435,3.9469,3.9482,3.9291,3.9289,3.9287,3.9286,0,0,3.9469,3.9447,3.9461,3.946,3.9449,3.9468,3.9505,3.9516,3.9529,3.9531,3.956,3.9589,3.9553,3.9557,3.9529,3.9559,3.9648,3.9516,3.9515,3.9539,3.9733,3.976,3.9777,3.9623,3.9626,3.9628,3.9732,0,3.9577,3.9637,3.9602,3.9668,3.9691,3.9635,3.9667,3.9664,3.9648,3.9665,3.9648,3.9669,3.962,3.9622,3.9649,3.9632,3.9686,3.9624,3.9648,3.965,3.9649,3.9795,3.9825,3.9924,3.9745,3.9748,3.9749,0,3.971,3.9717,3.9784,3.9768,3.9776,3.9806,3.9812,3.983,3.9825,3.9811,3.9816,3.9781,3.9816,3.9759,3.9806,3.9764,3.9772,3.9766,3.9768,3.9767,3.9704,3.9796,3.9955,3.9969,3.977,3.9768,3.9767,0,3.9824,3.985,3.9893,3.9895,3.9877,3.9899,3.9893,3.9885,3.9893,3.99,3.9905,3.9916,3.9921,3.9931,3.9899,3.9861,3.995,3.9891,3.9939,3.9939,3.9958,3.9957,4.0118,3.9968,3.9967,3.9967,3.9967,0,3.9947,3.9989,3.9944,3.997,4.0017,3.9977,4.0024,4.0012,4.0006,4.0029,3.9983,4.0006,3.9964,3.9983,3.9959,4.0,4.0004,3.9993,3.9986,3.9996,3.9997,3.9999,3.9991,3.9971,3.997,3.9969,3.9969,0,4.008,4.0052,4.0095,4.0075,4.0071,4.0106,4.0089,4.0112,4.0094,4.0124,4.0128,4.0099,4.0118,4.0089,4.0106,4.0089,4.0146,4.0129,4.0147,4.0141,4.019,4.0185,4.0357,4.0377,4.0216,4.0217,4.0219,0,4.0159,4.0191,4.0174,4.0186,4.0182,4.0202,4.021,4.0173,4.0184,4.0181,4.0205,4.022,4.023,4.0264,4.0244,4.0257,4.0239,4.0298,4.024,4.0249,4.0237,4.0235,4.0237,4.0309,4.0311,4.0313,4.0314,0,4.0302,4.0286,4.0299,4.0308,4.0319,4.0324,4.0326,4.0339,4.0299,4.0313,4.0332,4.034,4.0357,4.0373,4.038,4.0374,4.0338,4.0333,4.0344,4.0354,4.0362,4.0356,4.0177,4.0329,4.0327,4.0326,4.0325,4.0325,4.0409,4.0434,4.0426,4.0442,4.0439,4.0442,4.0463,4.0446,4.0461,4.0471,4.0449,4.0473,4.0468,4.0473,4.0472,4.049,4.0464,4.0481,4.0485,4.0489,4.0496,4.0361,4.0492,4.0491,4.0491,4.049,4.049,0,4.0547,4.0539,4.0555,4.0558,4.0571,4.0536,4.0536,4.0549,4.0571,4.0569,4.0579,4.0601,4.0616,4.0598,4.061,4.0628,4.0612,4.0633,4.063,4.0629,4.0519,4.0507,4.0645,4.0645,4.0645,4.0645,4.0645,4.0645,4.0621,4.066,4.0644,4.0681,4.0673,4.0696,4.0699,4.0701,4.0699,4.0725,4.0737,4.0725,4.0716,4.0727,4.0739,4.0733,4.0739,4.0765,4.0754,4.0652,4.0636,4.0622,4.061,4.0768,4.0768,4.0861,4.0862,4.0862]}]]